Location: Gro�sch�nbrunn
(49.5760°N, 11.8868°E)
Time: 21:14:21
(UTC+00:00)

Cosmos 2142 Rocket - Pass Details

Date: 18 September 2020
Orbit: 952 x 1005 km, 82.9° (Epoch: 20 October)

Event Time Altitude Azimuth Distance (km) Brightness Sun altitude
Exits shadow 20:21:19 66° 188° (S) 1,072 4.5 -27.9°
Maximum altitude 20:22:20 90° 125° (SE) 990 4.4 -28.0°
Drops below altitude 10° 20:28:36 10° 10° (N) 2,729 7.2 -28.8°
Sets 20:31:06 0° 10° (N) 3,673 8.0 -29.1°
